DECAYED

STARLINK-4349, 53044 (Decayed)

Orbit data source: Space-Track

STARLINK-4349, 53044 was a payload satellite owned by SpaceX/Seattle (US) in LEO that was launched on Mon, 11 Jul 2022 UTC via an FALCON 9 launch vehicle from the Air Force Western Test Range (AFWTR). Payload-class satellites include a variety of spacecraft equipped with specific instruments for various scientific and technological missions. These include communications satellites like Starlink; space stations such as the ISS; scientific satellites like the Hubble; Earth observation satellites from companies like Planet Labs, Umbra, and HawkEye 360; GPS; miniature CubeSats for education and research; and military/defense satellites.

Not visible in the next 10 days
Identifier
53044, 2022-077B
Orbit
Decayed
Country
Flag of USUS
Related business
Manufacturer
SpaceX/Seattle
Mission
Decayed Commercial Communications
Bus & Motor
STARLINK, Unknown motor
Mass
297 kg wet, ~275 kg dry
Launch date (UTC)
2022-07-11 (4 years ago)
Launch vehicle
FALCON 9
Launch site
Air Force Western Test Range (AFWTR)
Object type
Payload
Rocket body
Debris
Shape & HBR
Box + 1 Pan, 10.1 m
Radar Cross Section
13.562 m², Large (>1 m²)

Expand to show TLE details & history
Last TLE update: 2 months ago

TLE from 2 months ago
0 STARLINK-4349
1 53044U 22077B   26123.34559900  .10175676  27295-5  13556-3 0  9999
2 53044  97.5535 320.6144 0008443 251.3393 108.6994 16.49062714210209
Epoch: 2026-05-03T08:17Z
TLE epoch observation values (Epoch: 2026-05-03T08:17:39.753Z)
Latitude
-0.00007°
Longitude
-25.0517°
Altitude
146.833 km
Speed
7.817 km/s
True Right ascension
21h 22m 27s
True Declination
0° 00' 00"
Sunlit
Object was in daylight at epoch
Visualization orbit readout
Latitude
Unknown
Longitude
Unknown
Altitude
Unknown
Speed
Unknown
Apparent Right ascension
Unknown
Apparent Declination
Unknown
Sunlit
N/A
Visualization observer readout
Local Sidereal Time
21:34:33
Azimuth
Unknown
Elevation
Unknown
Doppler factor
Unknown
Orbital elements
Apogee altitude
144.11 km
Perigee altitude
133.106 km
Semi-major axis
6,516.745 km
Eccentricity
0.00084
Inclination
97.5535°
RAAN
320.6144°
Arg. of periapsis
251.3393°
True anomaly
108.79101°
Mean anomaly
108.6994°
Eccentric anomaly
108.74521°
Mean motion
4.12569 °/min
Orbital period
87.26 mins
BSTAR
0.00013556
Loading maneuver chart data...
Computing Atmospheric mass density...
Loading historical data...
Loading historical data...
Loading historical data...
Loading historical data...
Loading historical data...
Loading historical data...
Loading historical data...

Documentation

Showing up to 5 results
|